Погода в Горицах

Россия / Тверская область     57°09′15″N   36°44′00″E
темп.,
°C
ветер,
м/с
пор.,
м/с
влажн.,
%
обл.,
%
осадки,
мм/ч
давл.,
гПа
погр.,
м
21 января, пт
пт2100:00−2ю51294100 0.3 997780
03:00−2ю51292100 0.8 997760
06:00−3ю4993100 0.1 997650
09:00−4юв4994100 0.1 998443
12:00−5юв41094100 0.1 998407
15:00−5юв4895100 0.2 997461
18:00−6вюв3896100 1.3 997455
21:00−6вюв3796100 2.4 998395
22 января, сб
сб2200:00−7вюв2696100 0.8 999264
03:00−8в2697100 0.9 1001191
06:00−9всв2798100 0.1 1003143
09:00−10в389681 0.2 1005195
12:00−8всв379595 0.1 1007271
15:00−7всв3795100 0.2 1010328
18:00−7всв379682 0.2 1012235
21:00−9всв259773 0.3 1015128
23 января, вс
вс2300:00−14св1110090 0.0 101715
03:00−13св249882 0.1 102064
06:00−16всв1110082 0.1 10229
09:00−18ссв11100100 0.1 102510
12:00−11всв019590 0.1 102790
15:00−9сз119650 0.1 102923
18:00−16сз0110074 0.0 10339
21:00−18в0010092 0.0 10359
24 января, пн
пн2400:00−19юз1110098 0.0 10369
03:00−20юз00100100 0.0 10379
06:00−20ю22100100 0.0 103834
09:00−21юз11100100 0.0 10389
12:00−12ююз239583 0.0 1038131
15:00−10ю25958 0.0 1036172
18:00−16ю2210079 0.0 103613
21:00−17ю24100100 0.0 103555
25 января, вт
вт2500:00−17ююз27100100 0.0 1033109
03:00−16ююз289868 0.0 1030134
06:00−15ю3109759 0.0 1027164
09:00−14ююз3119660 0.0 1025224
12:00−10ююз413915 0.0 1022333
15:00−8ю51487100 0.0 1019489
18:00−9ююз51392100 0.1 1017490
21:00−9ююз41095100 0.9 1016406